Location: Kershaw
(34.5481°N, 80.5823°W)
Time: 15:04:40
(UTC+00:00)

Vanguard 1 Rocket - Pass Details

Date: 02 October 2022
Orbit: 655 x 4218 km, 34.3° (Epoch: 08 December)

Event Time Altitude Azimuth Distance (km) Brightness Sun altitude
Rises 01:14:56 0° 244° (WSW) 8,250 13.0 -27.1°
Reaches altitude 10° 01:21:07 10° 243° (WSW) 6,925 12.4 -28.3°
Maximum altitude 01:42:01 75° 163° (SSE) 2,523 9.3 -32.4°
Enters shadow 01:45:17 57° 100° (E) 2,472 9.1 -33.0°
Drops below altitude 10° 01:52:32 10° 81° (E) 3,794 - -34.4°
Sets 01:54:54 0° 79° (E) 4,468 - -34.9°
